Wind_Speed
58 58 56 55 55 53 52 52 51 51 51 51 51 51 52 52 51 50 50 50 49 49 50 52 55 57 56 56 56 51 53 56 58 55 52 51 51 46 51 54 52 50 44
61 60 61 60 59 58 58 58 59 59 59 58 57 58 58 57 58 58 57 56 56 55 52 54 57 58 59 57 58 58 58 57 58 54 50 51 51 48 51 54 49 43 40
68 68 68 67 64 64 65 65 65 64 64 64 63 62 62 63 63 63 63 62 60 59 56 54 57 60 59 58 60 59 59 57 56 50 52 59 43 46 52 49 45 42 38
71 71 70 68 68 70 70 69 69 68 67 66 66 65 64 63 63 62 60 61 61 61 61 59 56 59 61 62 61 62 53 56 51 55 61 56 44 52 49 45 41 40 39
62 65 67 68 67 69 71 68 65 66 65 62 62 62 62 62 62 62 62 62 61 62 62 60 58 58 58 59 58 56 56 52 54 57 62 51 50 50 47 44 42 42 41
52 52 55 59 61 60 62 65 67 70 71 68 67 64 62 62 61 59 59 59 59 59 58 57 55 55 55 57 54 54 53 52 59 64 54 46 50 49 46 44 44 43 40
50 50 50 49 48 48 47 48 51 56 58 59 60 61 58 56 53 52 53 52 52 52 53 52 52 53 52 52 53 52 51 57 62 61 47 48 50 49 47 46 44 42 43
55 55 51 47 44 44 43 44 46 48 51 53 53 52 51 47 46 45 46 48 48 49 51 51 52 53 53 54 53 52 55 58 59 45 48 50 49 47 46 42 41 42 42
50 51 47 45 42 41 42 44 44 45 46 47 48 50 51 50 50 51 50 50 52 52 51 52 54 54 53 54 54 56 58 55 46 49 49 49 46 44 44 42 41 40 40
48 51 51 48 45 47 49 48 50 50 49 49 50 52 54 56 56 54 51 51 50 49 50 52 53 54 53 53 58 62 51 44 49 51 48 45 44 43 42 41 40 42 44
56 53 54 55 55 54 53 51 51 51 53 54 53 53 54 53 53 52 51 50 51 53 51 52 56 57 59 62 61 49 44 49 51 49 46 44 46 42 40 40 41 43 47
53 56 56 58 60 62 62 58 54 53 54 54 55 56 54 52 50 50 49 48 49 52 54 56 62 63 63 61 49 45 49 52 48 46 45 45 42 40 40 42 45 48 50
56 57 58 57 57 57 58 58 57 59 58 57 56 54 54 55 54 53 51 48 48 50 54 55 59 64 55 47 46 50 50 48 46 46 43 41 41 43 45 46 50 53 55
57 56 57 58 58 57 58 59 60 61 61 59 56 54 54 54 55 55 53 51 52 54 55 56 58 55 51 47 48 48 48 46 45 44 43 43 45 47 50 52 54 55 57
59 59 58 59 58 58 57 58 59 60 61 59 56 56 58 55 53 52 52 52 53 55 57 56 54 50 48 46 45 45 46 45 45 45 45 46 48 50 52 54 56 58 59
63 62 61 59 59 59 59 59 59 60 63 62 58 56 56 55 54 52 52 56 56 54 54 53 51 49 45 45 46 47 46 46 47 47 48 50 52 54 56 57 59 60 61
64 64 63 60 62 59 56 54 53 57 59 58 57 55 54 51 50 55 55 55 52 51 49 48 48 47 47 48 49 49 48 49 51 53 55 56 57 57 58 59 60 61 63
65 67 65 63 62 57 61 60 59 61 60 58 57 56 51 51 55 53 52 51 50 48 47 47 47 49 50 50 50 51 51 53 55 57 58 59 60 60 60 61 63 66 68
61 64 63 64 68 63 60 63 60 61 63 60 59 62 62 56 52 52 52 51 50 49 49 47 48 50 52 53 54 54 54 55 56 58 59 60 61 62 64 66 68 70 72
57 59 61 63 62 67 65 62 62 62 60 63 67 66 56 52 53 53 53 53 51 51 51 51 50 50 52 54 55 55 56 57 58 60 62 63 65 67 69 71 73 75 77
55 60 61 63 64 66 61 57 61 60 60 61 60 56 55 55 54 55 55 55 55 54 54 54 54 55 56 58 59 60 62 63 64 66 68 69 71 73 75 77 79 79 80
51 55 59 57 59 61 61 60 56 55 56 57 57 59 58 58 58 60 61 61 62 62 63 64 63 63 64 66 67 69 71 72 73 74 76 77 78 79 81 81 81 82 84
58 58 59 57 55 57 56 55 52 52 54 59 60 60 63 64 65 67 67 67 68 70 71 71 72 72 73 73 75 76 77 78 79 80 81 82 83 84 84 83 83 84 85
50 50 52 50 50 50 50 52 55 55 58 61 63 65 67 69 71 73 73 73 74 76 78 78 78 78 79 80 81 82 82 82 84 84 85 87 86 84 84 84 85 85 86
45 47 49 50 53 56 56 57 59 61 64 67 70 72 73 75 77 78 79 79 79 80 82 82 82 82 83 84 85 86 86 86 86 86 86 85 85 85 86 86 86 86 86
44 47 50 52 54 58 60 63 64 66 69 71 73 75 76 78 79 80 81 82 82 83 83 84 85 86 87 87 87 87 86 86 86 87 88 88 89 89 90 90 88 86 81
Wind_Direction
248 250 252 255 257 257 258 260 260 263 266 268 269 271 272 274 276 277 280 281 280 280 279 275 272 275 278 282 288 288 291 293 294 294 296 297 300 300 303 302 305 305 304
249 249 250 251 254 255 256 257 259 261 263 265 267 270 270 272 273 275 276 278 280 281 283 283 280 275 276 281 285 288 290 292 294 295 294 293 297 301 300 301 302 300 298
254 252 252 252 254 255 256 257 258 260 262 265 267 268 268 270 272 275 277 279 280 281 282 284 284 282 280 282 286 287 287 293 293 293 291 294 295 297 297 299 296 294 292
258 259 259 259 259 258 257 258 261 263 265 267 268 269 270 272 274 277 278 279 280 281 283 285 284 284 284 285 286 285 292 290 290 290 292 294 294 294 296 294 293 290 293
261 261 261 263 264 263 263 263 265 267 269 272 273 273 274 276 277 278 279 281 282 282 284 284 283 282 283 284 286 291 287 288 289 291 291 290 294 292 291 290 290 292 294
265 266 266 264 263 264 265 265 267 269 271 273 274 277 278 279 278 278 278 279 281 282 283 281 280 280 279 279 281 283 283 283 287 288 291 292 290 289 290 289 290 291 294
262 264 266 268 268 267 266 266 267 268 270 271 273 275 275 276 275 275 276 277 278 280 280 280 279 278 279 280 279 279 278 281 283 287 286 288 286 287 288 288 291 294 292
262 261 264 267 269 269 267 269 270 270 270 271 271 272 273 277 278 280 281 281 281 279 279 279 278 277 277 277 275 272 274 279 284 286 284 284 286 287 287 290 292 293 291
260 261 260 259 260 263 266 269 269 269 270 271 272 272 271 269 278 280 280 278 279 279 277 279 278 276 272 272 272 271 275 274 280 283 282 284 285 285 286 288 289 289 288
259 258 260 260 261 266 267 267 268 268 269 270 271 270 271 274 278 279 278 277 278 277 277 277 274 274 273 269 270 273 279 284 284 282 283 282 281 282 283 285 287 289 291
264 258 257 261 264 264 269 272 268 269 271 270 271 273 277 280 281 283 282 280 281 284 279 276 275 273 272 273 277 274 282 283 281 280 278 279 282 282 285 289 291 293 293
263 264 263 262 266 269 268 268 265 267 270 271 272 274 278 280 283 286 286 285 283 283 285 279 272 277 278 280 274 282 282 280 279 278 279 281 281 282 284 286 289 291 293
263 264 264 263 262 264 264 264 264 265 269 272 273 274 277 280 281 282 283 283 284 283 283 278 279 276 275 273 278 279 279 281 280 280 278 277 278 279 283 286 289 291 293
267 267 268 267 267 266 266 265 265 266 268 270 271 274 277 279 280 282 282 283 286 289 287 283 280 280 275 273 276 278 281 279 276 274 274 276 279 281 284 288 292 294 294
269 268 268 269 270 269 266 265 265 266 268 269 271 273 275 277 279 281 283 282 283 283 278 275 274 271 272 274 276 276 275 274 274 274 276 278 279 284 289 293 294 293 293
266 266 266 266 265 264 264 264 266 267 270 270 269 270 273 276 278 280 283 284 280 278 276 272 269 268 269 271 273 274 276 275 274 275 277 280 284 288 291 292 292 292 293
258 260 260 262 263 260 262 264 267 269 266 265 266 268 270 274 276 280 278 275 275 275 273 272 270 270 271 272 273 274 275 276 277 278 280 282 285 287 288 288 289 290 290
253 252 252 254 258 256 260 264 264 266 266 263 266 268 271 275 276 273 271 272 272 273 272 271 273 274 275 274 275 275 276 277 277 278 280 281 283 285 286 286 288 289 293
253 252 250 256 257 263 257 261 260 262 262 262 267 269 267 268 268 265 267 270 274 275 275 275 276 277 277 277 278 278 279 279 280 281 283 285 286 287 287 289 292 295 296
256 252 250 251 254 255 262 259 257 260 260 264 265 265 261 261 262 264 268 271 274 277 278 277 277 276 276 278 279 281 282 283 284 285 286 287 288 290 292 294 295 296 296
259 254 251 247 252 261 258 252 257 258 262 263 262 260 259 260 261 263 267 270 273 274 272 272 275 277 279 280 281 282 284 285 287 288 288 289 290 291 293 295 296 296 297
249 249 251 249 245 253 252 255 261 260 259 257 257 259 260 261 261 260 261 264 267 269 272 274 275 277 278 280 282 284 285 285 285 286 288 289 291 293 294 294 295 296 298
249 248 242 247 249 249 250 253 253 253 254 256 257 259 260 261 263 264 266 268 270 271 272 273 275 276 278 281 283 284 285 286 286 286 288 289 290 290 291 292 294 295 296
243 241 244 246 248 249 249 250 251 254 256 258 260 262 263 264 265 266 268 269 270 271 272 273 274 276 278 280 282 283 283 284 285 285 285 286 287 289 290 291 292 294 296
248 248 250 252 252 254 255 256 257 258 259 260 263 264 265 267 268 269 269 270 271 272 273 275 276 278 279 281 281 281 282 283 283 284 285 286 287 288 289 291 292 294 295
261 261 259 258 258 258 259 260 260 261 262 263 264 265 267 268 268 270 271 272 273 274 275 276 277 277 278 279 280 281 282 283 284 285 285 287 288 290 290 291 292 292 292
Height
5736 5738 5740 5741 5742 5743 5744 5745 5746 5745 5744 5744 5743 5742 5741 5740 5739 5738 5739 5738 5736 5733 5731 5728 5725 5724 5722 5719 5717 5714 5711 5708 5705 5703 5700 5697 5692 5687 5682 5676 5671 5666 5662
5722 5724 5726 5727 5728 5730 5732 5732 5732 5732 5732 5732 5732 5731 5729 5728 5727 5726 5725 5724 5723 5722 5720 5718 5716 5712 5711 5709 5707 5705 5701 5696 5693 5691 5688 5685 5680 5676 5672 5667 5661 5656 5653
5706 5709 5711 5713 5715 5717 5718 5719 5719 5719 5719 5718 5718 5718 5717 5715 5714 5714 5713 5712 5711 5709 5707 5705 5703 5700 5699 5698 5695 5693 5689 5685 5682 5678 5675 5672 5667 5664 5660 5655 5651 5647 5643
5692 5695 5697 5699 5700 5702 5702 5703 5704 5705 5705 5705 5705 5705 5704 5703 5702 5701 5700 5699 5697 5696 5695 5693 5691 5689 5686 5684 5682 5679 5675 5673 5670 5667 5662 5658 5655 5651 5648 5643 5641 5637 5633
5679 5681 5683 5684 5686 5687 5688 5688 5689 5690 5690 5691 5691 5691 5691 5691 5690 5688 5687 5686 5685 5683 5682 5680 5677 5675 5673 5671 5666 5664 5662 5661 5657 5653 5648 5645 5642 5638 5635 5631 5628 5626 5623
5665 5667 5668 5669 5670 5672 5673 5674 5675 5675 5676 5676 5677 5677 5677 5677 5675 5674 5672 5671 5670 5669 5668 5665 5663 5661 5659 5656 5654 5652 5650 5647 5643 5639 5635 5633 5630 5626 5623 5620 5617 5614 5612
5653 5654 5655 5656 5656 5656 5658 5658 5659 5660 5660 5661 5661 5661 5661 5661 5660 5659 5657 5657 5656 5655 5654 5652 5650 5648 5645 5643 5640 5638 5636 5633 5628 5624 5621 5618 5617 5614 5611 5608 5606 5603 5602
5642 5642 5643 5643 5644 5644 5645 5646 5646 5646 5647 5647 5647 5647 5646 5646 5645 5644 5643 5642 5642 5641 5640 5638 5636 5634 5631 5629 5627 5623 5620 5617 5614 5611 5608 5606 5604 5602 5599 5596 5594 5591 5590
5630 5629 5630 5631 5632 5632 5632 5632 5633 5633 5633 5633 5633 5633 5633 5632 5631 5630 5628 5627 5627 5626 5625 5623 5621 5619 5616 5614 5613 5610 5605 5601 5598 5598 5595 5593 5592 5590 5587 5584 5581 5579 5577
5617 5618 5618 5619 5620 5620 5620 5620 5620 5620 5620 5620 5619 5619 5619 5618 5617 5615 5614 5613 5612 5611 5610 5609 5606 5605 5603 5600 5597 5595 5591 5588 5587 5586 5583 5581 5580 5577 5574 5573 5570 5568 5566
5601 5604 5605 5605 5606 5606 5606 5607 5606 5606 5606 5606 5606 5605 5604 5603 5602 5600 5599 5598 5597 5596 5595 5594 5592 5590 5587 5585 5583 5579 5577 5575 5574 5572 5570 5569 5568 5565 5563 5561 5559 5557 5554
5586 5587 5589 5590 5591 5591 5591 5591 5591 5592 5592 5591 5591 5590 5589 5588 5587 5586 5585 5584 5583 5581 5580 5579 5577 5574 5572 5570 5567 5565 5564 5562 5560 5559 5558 5556 5554 5552 5550 5548 5547 5544 5541
5571 5573 5573 5574 5574 5575 5575 5576 5576 5577 5577 5577 5576 5575 5574 5573 5571 5570 5569 5569 5568 5567 5566 5563 5562 5559 5556 5554 5553 5552 5550 5548 5548 5546 5544 5542 5541 5539 5537 5534 5533 5530 5526
5555 5556 5557 5558 5558 5559 5559 5560 5561 5561 5561 5561 5560 5560 5558 5558 5556 5555 5554 5553 5552 5551 5549 5547 5545 5543 5542 5541 5540 5539 5537 5536 5534 5532 5531 5529 5527 5526 5524 5521 5518 5514 5511
5537 5538 5540 5541 5542 5542 5543 5544 5545 5545 5544 5544 5543 5543 5542 5541 5540 5539 5538 5537 5537 5536 5534 5531 5530 5529 5528 5527 5526 5524 5523 5522 5520 5519 5517 5515 5513 5511 5508 5505 5502 5498 5494
5519 5520 5522 5523 5525 5526 5527 5528 5528 5529 5528 5528 5527 5527 5526 5526 5525 5524 5523 5522 5521 5520 5519 5517 5515 5514 5513 5512 5512 5510 5509 5508 5507 5505 5503 5500 5498 5495 5491 5488 5485 5482 5478
5499 5501 5504 5506 5508 5510 5510 5511 5511 5511 5510 5510 5510 5510 5510 5510 5509 5508 5507 5506 5506 5505 5503 5503 5502 5501 5500 5498 5497 5496 5495 5494 5492 5490 5488 5485 5481 5478 5475 5472 5469 5465 5461
5479 5482 5486 5488 5491 5491 5493 5494 5494 5495 5493 5493 5493 5493 5492 5492 5492 5491 5491 5492 5491 5490 5489 5488 5487 5486 5485 5483 5482 5480 5479 5477 5475 5473 5470 5467 5464 5461 5458 5454 5451 5448 5443
5460 5464 5468 5472 5472 5473 5474 5475 5476 5476 5476 5476 5476 5476 5475 5475 5476 5476 5476 5476 5476 5475 5474 5472 5471 5470 5469 5468 5466 5464 5462 5460 5458 5456 5453 5450 5447 5444 5441 5437 5433 5429 5424
5442 5446 5450 5453 5455 5456 5456 5455 5457 5458 5458 5458 5458 5458 5459 5459 5459 5460 5460 5460 5460 5459 5458 5457 5455 5454 5452 5451 5449 5447 5445 5442 5440 5437 5434 5432 5429 5426 5422 5417 5412 5407 5402
5425 5428 5431 5434 5436 5437 5437 5437 5438 5439 5440 5441 5442 5443 5443 5443 5443 5444 5444 5444 5443 5442 5441 5439 5438 5436 5435 5433 5431 5428 5425 5422 5419 5416 5414 5410 5408 5404 5399 5395 5391 5385 5379
5408 5411 5412 5413 5416 5418 5418 5420 5420 5421 5423 5424 5425 5426 5426 5427 5426 5425 5425 5425 5424 5423 5422 5421 5419 5417 5415 5412 5410 5407 5404 5401 5398 5395 5392 5388 5385 5380 5376 5371 5367 5362 5357
5391 5392 5395 5397 5398 5399 5400 5401 5403 5404 5406 5407 5408 5408 5408 5408 5407 5407 5406 5404 5403 5402 5401 5399 5398 5395 5393 5390 5387 5384 5381 5378 5375 5372 5368 5364 5360 5355 5351 5347 5342 5338 5332
5376 5377 5379 5380 5382 5383 5384 5385 5386 5387 5388 5389 5389 5389 5388 5387 5386 5385 5384 5382 5381 5379 5378 5376 5374 5370 5368 5366 5362 5359 5356 5353 5350 5346 5343 5339 5334 5328 5324 5320 5316 5311 5307
5361 5362 5363 5364 5365 5367 5367 5367 5367 5367 5368 5367 5367 5366 5365 5364 5362 5361 5360 5359 5357 5355 5353 5351 5348 5345 5343 5340 5336 5333 5330 5326 5322 5318 5315 5313 5308 5303 5297 5294 5289 5285 5282
5348 5348 5349 5349 5349 5349 5349 5349 5348 5347 5346 5345 5344 5343 5341 5340 5339 5337 5336 5334 5332 5330 5328 5325 5322 5319 5316 5313 5309 5305 5302 5298 5295 5291 5288 5286 5282 5277 5272 5268 5264 5261 5257